When you browse on this site, cookies collect data to enhance your experience and personalize the content and advertising you see.
Visit our Privacy Policy to learn more. By continuing to use the site, you agree to this use of cookies and data.
  • In Czech Republic
  • List of Countries
  • For 7 days
  • Water Temperature
  • Satellite Maps
  • Weather Map
  • Weather Widgets
  • user-avatar
    Login

    Hourly Weather Solden

    Today, 17 November, Saturday

    Time Temperature Precipitation Wind Pressure Humidity
    00:00 -4°C° 0 mm 1 mps 584 mmHg 89%
    01:00 -6°C° 0 mm 1 mps 583 mmHg 89%
    02:00 -6°C° 0 mm 1 mps 583 mmHg 89%
    03:00 -6°C° 0 mm 1 mps 583 mmHg 89%
    04:00 -6°C° 0 mm 1 mps 583 mmHg 89%
    05:00 -7°C° 0 mm 1 mps 582 mmHg 89%
    06:00 -7°C° 0 mm 1 mps 582 mmHg 88%
    07:00 -7°C° 0 mm 1 mps 582 mmHg 87%
    08:00 -6°C° 0 mm 1 mps 583 mmHg 79%
    09:00 -4°C° 0 mm 1 mps 583 mmHg 71%
    10:00 -2°C° 0 mm 1 mps 584 mmHg 63%
    11:00 -1°C° 0 mm 1 mps 584 mmHg 57%
    12:00 -1°C° 0 mm 1 mps 584 mmHg 52%
    13:00 0°C° 0 mm 1 mps 584 mmHg 46%
    14:00 -1°C° 0 mm 1 mps 584 mmHg 49%
    15:00 -2°C° 0 mm 1 mps 583 mmHg 53%
    16:00 -4°C° 0 mm 0 mps 582 mmHg 56%
    17:00 -4°C° 0 mm 1 mps 582 mmHg 61%
    18:00 -6°C° 0 mm 1 mps 581 mmHg 66%
    19:00 -7°C° 0 mm 1 mps 581 mmHg 71%
    20:00 -8°C° 0 mm 1 mps 581 mmHg 73%
    21:00 -8°C° 0 mm 1 mps 581 mmHg 74%
    22:00 -8°C° 0 mm 1 mps 581 mmHg 75%
    23:00 -8°C° 0 mm 1 mps 581 mmHg 76%

    Tomorrow, 18 November, Sunday

    Time Temperature Precipitation Wind Pressure Humidity
    00:00 -8°C° 0 mm 1 mps 581 mmHg 77%
    01:00 -8°C° 0 mm 1 mps 581 mmHg 78%
    02:00 -8°C° 0 mm 1 mps 581 mmHg 79%
    03:00 -9°C° 0 mm 1 mps 581 mmHg 79%
    04:00 -9°C° 0 mm 1 mps 580 mmHg 80%
    05:00 -9°C° 0 mm 1 mps 580 mmHg 79%
    06:00 -9°C° 0 mm 1 mps 580 mmHg 78%
    07:00 -9°C° 0 mm 1 mps 580 mmHg 77%
    08:00 -8°C° 0 mm 1 mps 581 mmHg 70%
    09:00 -6°C° 0 mm 1 mps 581 mmHg 63%
    10:00 -3°C° 0 mm 1 mps 582 mmHg 57%
    11:00 -3°C° 0 mm 1 mps 582 mmHg 54%
    12:00 -2°C° 0 mm 1 mps 582 mmHg 51%
    13:00 -1°C° 0 mm 1 mps 582 mmHg 48%
    14:00 -2°C° 0 mm 1 mps 581 mmHg 51%
    15:00 -3°C° 0 mm 1 mps 581 mmHg 55%
    16:00 -4°C° 0 mm 1 mps 580 mmHg 58%
    17:00 -6°C° 0 mm 1 mps 579 mmHg 62%
    18:00 -7°C° 0 mm 1 mps 579 mmHg 65%
    19:00 -8°C° 0 mm 1 mps 578 mmHg 69%
    20:00 -8°C° 0 mm 1 mps 578 mmHg 69%
    21:00 -8°C° 0 mm 1 mps 577 mmHg 68%
    22:00 -9°C° 0 mm 1 mps 577 mmHg 68%
    23:00 -9°C° 0 mm 1 mps 577 mmHg 69%

    Day after tomorrow, 19 November, Monday

    Time Temperature Precipitation Wind Pressure Humidity
    00:00 -9°C° 0 mm 1 mps 577 mmHg 69%
    01:00 -9°C° 0 mm 1 mps 576 mmHg 70%
    02:00 -9°C° 0 mm 1 mps 576 mmHg 71%
    03:00 -9°C° 0 mm 1 mps 576 mmHg 72%
    04:00 -10°C° 0 mm 1 mps 575 mmHg 73%
    05:00 -10°C° 0 mm 1 mps 575 mmHg 74%
    06:00 -10°C° 0 mm 1 mps 575 mmHg 75%
    07:00 -10°C° 0 mm 1 mps 574 mmHg 76%
    08:00 -9°C° 0 mm 1 mps 575 mmHg 72%
    09:00 -7°C° 0 mm 1 mps 575 mmHg 68%
    10:00 -6°C° 0 mm 1 mps 576 mmHg 64%
    11:00 -6°C° 0.1 mm 1 mps 576 mmHg 63%
    12:00 -4°C° 0.1 mm 1 mps 575 mmHg 61%
    13:00 -4°C° 0.1 mm 1 mps 575 mmHg 60%
    14:00 -6°C° 0.1 mm 1 mps 575 mmHg 65%
    15:00 -6°C° 0.1 mm 1 mps 574 mmHg 69%
    16:00 -7°C° 0.1 mm 1 mps 573 mmHg 74%
    17:00 -8°C° 0.2 mm 1 mps 573 mmHg 77%
    18:00 -8°C° 0.2 mm 1 mps 573 mmHg 81%
    19:00 -9°C° 0.2 mm 1 mps 572 mmHg 84%
    20:00 -9°C° 0.3 mm 1 mps 572 mmHg 85%
    21:00 -9°C° 0.3 mm 1 mps 572 mmHg 85%
    22:00 -9°C° 0.3 mm 1 mps 572 mmHg 86%
    23:00 -9°C° 0.2 mm 1 mps 572 mmHg 85%

    20 November, Tuesday

    Time Temperature Precipitation Wind Pressure Humidity
    00:00 -10°C° 0.2 mm 1 mps 571 mmHg 85%
    01:00 -10°C° 0.2 mm 1 mps 571 mmHg 85%
    02:00 -10°C° 0.1 mm 1 mps 571 mmHg 85%
    03:00 -10°C° 0.1 mm 1 mps 570 mmHg 84%
    04:00 -10°C° 0.1 mm 1 mps 570 mmHg 84%
    05:00 -11°C° 0.1 mm 1 mps 570 mmHg 83%
    06:00 -11°C° 0.1 mm 1 mps 569 mmHg 82%
    07:00 -11°C° 0.1 mm 1 mps 569 mmHg 82%
    08:00 -10°C° 0.2 mm 1 mps 569 mmHg 78%
    09:00 -9°C° 0.2 mm 1 mps 570 mmHg 74%
    10:00 -9°C° 0.2 mm 1 mps 570 mmHg 70%
    11:00 -8°C° 0.2 mm 1 mps 570 mmHg 69%
    12:00 -8°C° 0.2 mm 1 mps 570 mmHg 67%
    13:00 -7°C° 0.2 mm 1 mps 569 mmHg 65%
    14:00 -7°C° 0.2 mm 1 mps 569 mmHg 69%
    15:00 -8°C° 0.2 mm 1 mps 569 mmHg 73%
    16:00 -8°C° 0.2 mm 1 mps 569 mmHg 77%
    17:00 -8°C° 0.4 mm 1 mps 568 mmHg 80%
    18:00 -9°C° 0.4 mm 1 mps 568 mmHg 82%
    19:00 -9°C° 0.4 mm 1 mps 568 mmHg 85%
    20:00 -9°C° 0.4 mm 1 mps 568 mmHg 86%
    21:00 -9°C° 0.4 mm 1 mps 568 mmHg 86%
    22:00 -10°C° 0.4 mm 1 mps 568 mmHg 87%
    23:00 -10°C° 0.5 mm 1 mps 568 mmHg 88%

    21 November, Wednesday

    Time Temperature Precipitation Wind Pressure Humidity
    00:00 -10°C° 0.5 mm 1 mps 568 mmHg 88%
    01:00 -10°C° 0.5 mm 1 mps 567 mmHg 89%
    02:00 -10°C° 0.3 mm 1 mps 567 mmHg 89%
    03:00 -10°C° 0.3 mm 1 mps 567 mmHg 89%
    04:00 -11°C° 0.3 mm 1 mps 567 mmHg 89%
    05:00 -13°C° 0.2 mm 2 mps 567 mmHg 88%
    06:00 -13°C° 0.2 mm 2 mps 567 mmHg 87%
    07:00 -13°C° 0.2 mm 2 mps 567 mmHg 86%
    08:00 -12°C° 0.4 mm 2 mps 567 mmHg 84%
    09:00 -12°C° 0.4 mm 2 mps 567 mmHg 81%
    10:00 -10°C° 0.4 mm 2 mps 568 mmHg 79%
    11:00 -10°C° 0.4 mm 2 mps 568 mmHg 78%
    12:00 -9°C° 0.4 mm 2 mps 568 mmHg 77%
    13:00 -9°C° 0.4 mm 2 mps 569 mmHg 76%
    14:00 -9°C° 0.3 mm 2 mps 569 mmHg 78%
    15:00 -10°C° 0.3 mm 2 mps 569 mmHg 79%
    16:00 -10°C° 0.3 mm 2 mps 569 mmHg 80%
    17:00 -12°C° 0.2 mm 2 mps 569 mmHg 81%
    18:00 -12°C° 0.2 mm 2 mps 569 mmHg 83%
    19:00 -13°C° 0.2 mm 2 mps 569 mmHg 84%
    20:00 -13°C° 0.2 mm 2 mps 570 mmHg 84%
    21:00 -13°C° 0.2 mm 2 mps 570 mmHg 84%
    22:00 -14°C° 0.2 mm 2 mps 570 mmHg 84%
    23:00 -14°C° 0.1 mm 2 mps 570 mmHg 84%

    22 November, Thursday

    Time Temperature Precipitation Wind Pressure Humidity
    00:00 -14°C° 0.1 mm 2 mps 571 mmHg 84%
    01:00 -15°C° 0.1 mm 2 mps 571 mmHg 85%
    02:00 -15°C° 0 mm 2 mps 571 mmHg 85%
    03:00 -15°C° 0 mm 2 mps 571 mmHg 85%
    04:00 -16°C° 0 mm 2 mps 571 mmHg 85%
    05:00 -14°C° 0 mm 1 mps 571 mmHg 84%
    06:00 -14°C° 0 mm 1 mps 571 mmHg 84%
    07:00 -15°C° 0 mm 1 mps 572 mmHg 83%
    08:00 -13°C° 0 mm 1 mps 573 mmHg 78%
    09:00 -12°C° 0 mm 1 mps 574 mmHg 74%
    10:00 -10°C° 0 mm 1 mps 575 mmHg 69%
    11:00 -9°C° 0 mm 1 mps 575 mmHg 65%
    12:00 -8°C° 0 mm 1 mps 576 mmHg 62%
    13:00 -8°C° 0 mm 1 mps 576 mmHg 59%
    14:00 -9°C° 0 mm 1 mps 576 mmHg 63%
    15:00 -10°C° 0 mm 1 mps 575 mmHg 67%
    16:00 -11°C° 0 mm 0 mps 575 mmHg 71%
    17:00 -12°C° 0 mm 1 mps 575 mmHg 74%
    18:00 -13°C° 0 mm 1 mps 575 mmHg 77%
    19:00 -14°C° 0 mm 1 mps 575 mmHg 80%
    20:00 -15°C° 0 mm 1 mps 575 mmHg 79%
    21:00 -15°C° 0 mm 1 mps 575 mmHg 79%
    22:00 -15°C° 0 mm 1 mps 575 mmHg 79%
    23:00 -15°C° 0 mm 1 mps 575 mmHg 77%
    Show more